GSAT0220 (GALILEO 24) (43567 NORAD) Tracking and Keplerian Element Data

This shows tracking and keplerian element data for the satellite.

Feedback or suggestion? Click here.




ElementValue
Catalog43567
NameGSAT0220 (GALILEO 24)
Epoch Orbit3653
Epoch Day158.28262433
Epoch Year2024
RAAN1.764
Inclination57.306
Eccentricity0.0002096
Argument of Perigee322.1052
Mean Anonmoly37.9167
Mean Motion1.70475542
Decay Rate-9.6E-07
L11 43567U 18060D 24158.28262433 -.00000096 00000+0 00000+0 0 9994
L22 43567 57.3060 1.7640 0002096 322.1052 37.9167 1.70475542 36533



Live tracking and technical data element details for GSAT0220 (GALILEO 24) (NORAD 43567). GSAT0220 (GALILEO 24) can be tracked NOW for your location showing map with azimuth and elevation plus other details from your city location.







IsCatalogInMostPopularTable: catalog: 43567, numindb: 633
Update: records affected: 1



GetName: 43567 GSAT0220 (GALILEO 24)

Hit Count: updated at: Mon, 17 Jun 2024 23:25:21 GMT